Station Historical Data
Daily Summary for June 24, 2017 Units:  English    Metric   Both
« Previous Day
Next Day »
Daily Weekly Monthly Yearly Custom
  High: Low: Average:
Temperature: 90.4 °F 73.5 °F 81.3 °F
Dew Point: 67.8 °F 56.7 °F 62.1 °F
Humidity: 62 % 41 % 52 %
Wind Speed: 12.0 mph 0.0 mph 1.3 mph
Wind Gust: 14.0 mph - -
Wind:- - SE
Pressure: 29.86 in 29.83 in -
Precipitation: 0.00 in    
Historical Graphs
 
 
Tabular Data for June 24, 2017
Time Temperature Dew Point Pressure Wind Wind Speed Wind Gust Humidity Rainfall Rate (Hourly) solar
00:01 77.3 °F 58.8 °F 29.85 in East 2.0 mph 9.0 mph 53 % 0.00 in 0.00 W/m2
00:06 77.3 °F 59.4 °F 29.85 in East 2.0 mph 7.0 mph 54 % 0.00 in 0.00 W/m2
00:11 77.2 °F 58.8 °F 29.85 in East 5.0 mph 6.0 mph 53 % 0.00 in 0.00 W/m2
00:16 77.2 °F 59.3 °F 29.85 in Calm   12.0 mph 54 % 0.00 in 0.00 W/m2
00:21 77.2 °F 59.3 °F 29.85 in East 6.0 mph 7.0 mph 54 % 0.00 in 0.00 W/m2
00:26 77.2 °F 59.3 °F 29.85 in East 1.0 mph 1.0 mph 54 % 0.00 in 0.00 W/m2
00:31 77.2 °F 59.3 °F 29.85 in ESE 7.0 mph 8.0 mph 54 % 0.00 in 0.00 W/m2
00:36 77.2 °F 59.3 °F 29.85 in Calm   1.0 mph 54 % 0.00 in 0.00 W/m2
00:41 77.2 °F 59.3 °F 29.85 in Calm   6.0 mph 54 % 0.00 in 0.00 W/m2
00:46 77.2 °F 59.3 °F 29.85 in ESE 4.0 mph 8.0 mph 54 % 0.00 in 0.00 W/m2
00:51 77.1 °F 59.2 °F 29.85 in ESE 9.0 mph 9.0 mph 54 % 0.00 in 0.00 W/m2
00:56 77.0 °F 59.1 °F 29.85 in East 5.0 mph 8.0 mph 54 % 0.00 in 0.00 W/m2
01:01 77.0 °F 59.1 °F 29.85 in East 7.0 mph 7.0 mph 54 % 0.00 in 0.00 W/m2
01:06 76.9 °F 59.0 °F 29.85 in East 4.0 mph 7.0 mph 54 % 0.00 in 0.00 W/m2
01:11 76.9 °F 59.0 °F 29.85 in East 8.0 mph 8.0 mph 54 % 0.00 in 0.00 W/m2
01:16 76.9 °F 59.0 °F 29.85 in Calm   4.0 mph 54 % 0.00 in 0.00 W/m2
01:21 76.8 °F 58.9 °F 29.85 in Calm   5.0 mph 54 % 0.00 in 0.00 W/m2
01:26 76.8 °F 58.9 °F 29.85 in Calm   4.0 mph 54 % 0.00 in 0.00 W/m2
01:31 76.8 °F 59.4 °F 29.85 in East 6.0 mph 6.0 mph 55 % 0.00 in 0.00 W/m2
01:36 76.7 °F 59.3 °F 29.85 in Calm   6.0 mph 55 % 0.00 in 0.00 W/m2
01:41 76.7 °F 59.3 °F 29.85 in Calm   4.0 mph 55 % 0.00 in 0.00 W/m2
01:46 76.6 °F 59.2 °F 29.85 in Calm     55 % 0.00 in 0.00 W/m2
01:48 76.6 °F 59.2 °F 29.85 in Calm   4.0 mph 55 % 0.00 in 0.00 W/m2
01:53 76.5 °F 59.2 °F 29.85 in East 2.0 mph 4.0 mph 55 % 0.00 in 0.00 W/m2
01:58 76.5 °F 59.2 °F 29.84 in Calm   7.0 mph 55 % 0.00 in 0.00 W/m2
02:03 76.4 °F 59.1 °F 29.84 in Calm   7.0 mph 55 % 0.00 in 0.00 W/m2
02:08 76.3 °F 59.0 °F 29.84 in Calm   4.0 mph 55 % 0.00 in 0.00 W/m2
02:13 76.3 °F 59.0 °F 29.84 in East 1.0 mph 7.0 mph 55 % 0.00 in 0.00 W/m2
02:18 76.2 °F 59.4 °F 29.84 in Calm   6.0 mph 56 % 0.00 in 0.00 W/m2
02:23 76.1 °F 59.3 °F 29.84 in East 4.0 mph 8.0 mph 56 % 0.00 in 0.00 W/m2
02:28 76.0 °F 59.2 °F 29.84 in East 5.0 mph 8.0 mph 56 % 0.00 in 0.00 W/m2
02:33 76.0 °F 59.2 °F 29.84 in Calm   5.0 mph 56 % 0.00 in 0.00 W/m2
02:38 75.8 °F 59.0 °F 29.84 in Calm   6.0 mph 56 % 0.00 in 0.00 W/m2
02:43 75.8 °F 59.0 °F 29.84 in Calm   5.0 mph 56 % 0.00 in 0.00 W/m2
02:48 75.7 °F 58.9 °F 29.84 in Calm   5.0 mph 56 % 0.00 in 0.00 W/m2
02:53 75.7 °F 58.9 °F 29.84 in East 5.0 mph 8.0 mph 56 % 0.00 in 0.00 W/m2
02:58 75.6 °F 58.8 °F 29.84 in Calm   5.0 mph 56 % 0.00 in 0.00 W/m2
03:03 75.5 °F 58.2 °F 29.84 in East 4.0 mph 7.0 mph 55 % 0.00 in 0.00 W/m2
03:08 75.5 °F 58.7 °F 29.84 in East 1.0 mph 8.0 mph 56 % 0.00 in 0.00 W/m2
03:13 75.4 °F 58.6 °F 29.83 in East 6.0 mph 6.0 mph 56 % 0.00 in 0.00 W/m2
03:18 75.3 °F 58.5 °F 29.83 in ESE 6.0 mph 8.0 mph 56 % 0.00 in 0.00 W/m2
03:23 75.2 °F 58.4 °F 29.83 in ESE 5.0 mph 11.0 mph 56 % 0.00 in 0.00 W/m2
03:28 75.1 °F 58.3 °F 29.83 in ESE 2.0 mph 8.0 mph 56 % 0.00 in 0.00 W/m2
03:33 75.1 °F 58.3 °F 29.83 in Calm   9.0 mph 56 % 0.00 in 0.00 W/m2
03:38 75.0 °F 58.3 °F 29.83 in ESE 4.0 mph 11.0 mph 56 % 0.00 in 0.00 W/m2
03:43 74.9 °F 58.2 °F 29.83 in ESE 5.0 mph 9.0 mph 56 % 0.00 in 0.00 W/m2
03:48 74.9 °F 58.2 °F 29.83 in ESE 4.0 mph 12.0 mph 56 % 0.00 in 0.00 W/m2
03:53 74.9 °F 58.2 °F 29.83 in ESE 5.0 mph 7.0 mph 56 % 0.00 in 0.00 W/m2
03:55 74.8 °F 58.1 °F 29.83 in Calm   7.0 mph 56 % 0.00 in 0.00 W/m2
04:00 74.8 °F 58.1 °F 29.84 in ESE 2.0 mph 9.0 mph 56 % 0.00 in 0.00 W/m2
04:05 74.7 °F 58.0 °F 29.83 in Calm   7.0 mph 56 % 0.00 in 0.00 W/m2
04:10 74.7 °F 58.0 °F 29.83 in Calm   4.0 mph 56 % 0.00 in 0.00 W/m2
04:15 74.6 °F 58.4 °F 29.83 in Calm   6.0 mph 57 % 0.00 in 0.00 W/m2
04:20 74.5 °F 57.8 °F 29.83 in East 6.0 mph 6.0 mph 56 % 0.00 in 0.00 W/m2
04:25 74.4 °F 57.7 °F 29.83 in Calm   1.0 mph 56 % 0.00 in 0.00 W/m2
04:30 74.4 °F 58.2 °F 29.83 in Calm     57 % 0.00 in 0.00 W/m2
04:35 74.3 °F 57.6 °F 29.83 in Calm     56 % 0.00 in 0.00 W/m2
04:40 74.3 °F 57.6 °F 29.83 in Calm     56 % 0.00 in 0.00 W/m2
04:41 74.3 °F 57.6 °F 29.83 in Calm   1.0 mph 56 % 0.00 in 0.00 W/m2
04:46 74.2 °F 57.5 °F 29.83 in Calm   4.0 mph 56 % 0.00 in 0.00 W/m2
04:51 74.2 °F 58.0 °F 29.83 in Calm     57 % 0.00 in 0.00 W/m2
04:56 74.2 °F 57.5 °F 29.83 in Calm   1.0 mph 56 % 0.00 in 0.00 W/m2
05:01 74.1 °F 57.4 °F 29.83 in Calm   6.0 mph 56 % 0.00 in 0.00 W/m2
05:06 74.1 °F 57.4 °F 29.84 in East 2.0 mph 2.0 mph 56 % 0.00 in 0.00 W/m2
05:12 74.0 °F 57.3 °F 29.84 in Calm     56 % 0.00 in 0.00 W/m2
05:17 74.0 °F 57.3 °F 29.84 in East 2.0 mph 9.0 mph 56 % 0.00 in 0.00 W/m2
05:22 74.0 °F 57.3 °F 29.84 in Calm   8.0 mph 56 % 0.00 in 0.00 W/m2
05:27 73.9 °F 57.2 °F 29.84 in Calm   4.0 mph 56 % 0.00 in 0.00 W/m2
05:32 73.9 °F 56.7 °F 29.84 in Calm   9.0 mph 55 % 0.00 in 0.00 W/m2
05:37 73.9 °F 57.2 °F 29.84 in ESE 4.0 mph 4.0 mph 56 % 0.00 in 5.00 W/m2
05:42 73.9 °F 57.2 °F 29.84 in Calm   5.0 mph 56 % 0.00 in 7.00 W/m2
05:47 73.9 °F 57.2 °F 29.84 in Calm   6.0 mph 56 % 0.00 in 9.00 W/m2
05:52 73.8 °F 57.1 °F 29.84 in East 8.0 mph 9.0 mph 56 % 0.00 in 12.00 W/m2
05:57 73.8 °F 57.1 °F 29.84 in East 6.0 mph 6.0 mph 56 % 0.00 in 14.00 W/m2
05:58 73.8 °F 57.1 °F 29.84 in East 2.0 mph 8.0 mph 56 % 0.00 in 14.00 W/m2
06:03 73.8 °F 57.1 °F 29.84 in Calm   9.0 mph 56 % 0.00 in 18.00 W/m2
06:08 73.8 °F 57.1 °F 29.84 in East 1.0 mph 7.0 mph 56 % 0.00 in 19.00 W/m2
06:13 73.8 °F 57.1 °F 29.85 in ESE 5.0 mph 9.0 mph 56 % 0.00 in 23.00 W/m2
06:14 73.7 °F 57.0 °F 29.85 in Calm   9.0 mph 56 % 0.00 in 25.00 W/m2
06:19 73.7 °F 57.0 °F 29.85 in ESE 5.0 mph 12.0 mph 56 % 0.00 in 37.00 W/m2
06:24 73.7 °F 57.0 °F 29.85 in ESE 6.0 mph 8.0 mph 56 % 0.00 in 47.00 W/m2
06:29 73.8 °F 57.1 °F 29.85 in East 1.0 mph 13.0 mph 56 % 0.00 in 54.00 W/m2
06:34 73.8 °F 57.1 °F 29.85 in Calm   12.0 mph 56 % 0.00 in 70.00 W/m2
06:39 73.8 °F 57.6 °F 29.85 in Calm   9.0 mph 57 % 0.00 in 84.00 W/m2
06:44 73.8 °F 57.6 °F 29.85 in East 1.0 mph 8.0 mph 57 % 0.00 in 100.00 W/m2
06:49 73.7 °F 58.0 °F 29.85 in East 5.0 mph 9.0 mph 58 % 0.00 in 118.00 W/m2
06:54 73.7 °F 58.0 °F 29.85 in East 2.0 mph 8.0 mph 58 % 0.00 in 137.00 W/m2
06:59 73.7 °F 58.0 °F 29.85 in Calm   8.0 mph 58 % 0.00 in 155.00 W/m2
07:04 73.6 °F 57.9 °F 29.85 in East 4.0 mph 8.0 mph 58 % 0.00 in 176.00 W/m2
07:09 73.6 °F 57.9 °F 29.85 in Calm   7.0 mph 58 % 0.00 in 192.00 W/m2
07:14 73.6 °F 58.4 °F 29.85 in Calm   8.0 mph 59 % 0.00 in 214.00 W/m2
07:19 73.6 °F 58.4 °F 29.85 in Calm   6.0 mph 59 % 0.00 in 234.00 W/m2
07:22 73.5 °F 57.8 °F 29.85 in East 2.0 mph 7.0 mph 58 % 0.00 in 248.00 W/m2
07:27 73.6 °F 57.9 °F 29.85 in Calm   7.0 mph 58 % 0.00 in 265.00 W/m2
07:32 73.6 °F 58.4 °F 29.85 in East 1.0 mph 8.0 mph 59 % 0.00 in 279.00 W/m2
07:37 73.7 °F 58.5 °F 29.85 in Calm   7.0 mph 59 % 0.00 in 297.00 W/m2
07:42 73.8 °F 59.1 °F 29.85 in Calm   5.0 mph 60 % 0.00 in 313.00 W/m2
07:47 73.8 °F 59.1 °F 29.85 in East 4.0 mph 5.0 mph 60 % 0.00 in 330.00 W/m2
07:52 73.9 °F 59.2 °F 29.85 in Calm     60 % 0.00 in 348.00 W/m2
07:57 74.0 °F 58.8 °F 29.85 in Calm     59 % 0.00 in 364.00 W/m2
08:02 74.1 °F 59.3 °F 29.85 in Calm     60 % 0.00 in 380.00 W/m2
08:07 74.2 °F 59.0 °F 29.85 in Calm     59 % 0.00 in 396.00 W/m2
08:12 74.4 °F 60.1 °F 29.85 in Calm     61 % 0.00 in 410.00 W/m2
08:17 74.6 °F 60.3 °F 29.85 in Calm   1.0 mph 61 % 0.00 in 425.00 W/m2
08:22 74.8 °F 60.9 °F 29.85 in Calm   2.0 mph 62 % 0.00 in 441.00 W/m2
08:27 74.9 °F 60.6 °F 29.85 in Calm   4.0 mph 61 % 0.00 in 457.00 W/m2
08:32 75.1 °F 60.3 °F 29.85 in Calm     60 % 0.00 in 471.00 W/m2
08:37 75.4 °F 60.6 °F 29.85 in Calm   4.0 mph 60 % 0.00 in 487.00 W/m2
08:42 75.7 °F 61.8 °F 29.85 in East 1.0 mph 4.0 mph 62 % 0.00 in 503.00 W/m2
08:47 76.0 °F 61.6 °F 29.85 in Calm     61 % 0.00 in 519.00 W/m2
08:52 76.2 °F 61.3 °F 29.85 in Calm     60 % 0.00 in 529.00 W/m2
08:57 76.5 °F 61.1 °F 29.85 in Calm   1.0 mph 59 % 0.00 in 545.00 W/m2
09:02 76.8 °F 61.4 °F 29.85 in Calm     59 % 0.00 in 559.00 W/m2
09:08 77.1 °F 62.6 °F 29.85 in Calm     61 % 0.00 in 573.00 W/m2
09:13 77.4 °F 62.9 °F 29.85 in Calm     61 % 0.00 in 589.00 W/m2
09:18 77.8 °F 62.8 °F 29.85 in Calm     60 % 0.00 in 605.00 W/m2
09:23 78.1 °F 63.1 °F 29.85 in Calm     60 % 0.00 in 619.00 W/m2
09:28 78.5 °F 62.0 °F 29.85 in Calm     57 % 0.00 in 633.00 W/m2
09:33 78.9 °F 63.4 °F 29.85 in Calm     59 % 0.00 in 647.00 W/m2
09:38 79.5 °F 63.9 °F 29.85 in Calm   1.0 mph 59 % 0.00 in 659.00 W/m2
09:43 80.1 °F 65.0 °F 29.85 in Calm   1.0 mph 60 % 0.00 in 671.00 W/m2
09:48 80.7 °F 65.1 °F 29.85 in Calm   1.0 mph 59 % 0.00 in 686.00 W/m2
09:53 81.2 °F 65.0 °F 29.85 in Calm     58 % 0.00 in 698.00 W/m2
09:58 81.7 °F 65.0 °F 29.85 in Calm   4.0 mph 57 % 0.00 in 712.00 W/m2
10:03 82.1 °F 64.9 °F 29.85 in Calm   4.0 mph 56 % 0.00 in 724.00 W/m2
10:08 82.5 °F 65.8 °F 29.85 in East 2.0 mph 4.0 mph 57 % 0.00 in 737.00 W/m2
10:13 82.8 °F 65.5 °F 29.85 in Calm     56 % 0.00 in 751.00 W/m2
10:18 83.1 °F 65.3 °F 29.85 in Calm     55 % 0.00 in 761.00 W/m2
10:23 83.4 °F 64.5 °F 29.85 in Calm   1.0 mph 53 % 0.00 in 772.00 W/m2
10:28 83.8 °F 64.9 °F 29.85 in Calm     53 % 0.00 in 782.00 W/m2
10:33 84.1 °F 64.0 °F 29.85 in Calm     51 % 0.00 in 793.00 W/m2
10:34 84.1 °F 64.0 °F 29.85 in Calm     51 % 0.00 in 795.00 W/m2
10:39 84.4 °F 64.3 °F 29.85 in Calm   1.0 mph 51 % 0.00 in 807.00 W/m2
10:44 84.6 °F 63.3 °F 29.85 in Calm     49 % 0.00 in 816.00 W/m2
10:49 84.9 °F 64.2 °F 29.85 in Calm     50 % 0.00 in 826.00 W/m2
10:54 85.1 °F 65.0 °F 29.85 in Calm     51 % 0.00 in 833.00 W/m2
10:59 85.3 °F 65.1 °F 29.85 in Calm     51 % 0.00 in 842.00 W/m2
11:04 85.6 °F 66.5 °F 29.85 in Calm     53 % 0.00 in 853.00 W/m2
11:09 85.7 °F 64.9 °F 29.85 in East 1.0 mph 6.0 mph 50 % 0.00 in 860.00 W/m2
11:14 85.9 °F 66.8 °F 29.85 in Calm   1.0 mph 53 % 0.00 in 868.00 W/m2
11:19 86.0 °F 66.9 °F 29.85 in Calm   1.0 mph 53 % 0.00 in 874.00 W/m2
11:24 86.3 °F 67.7 °F 29.85 in Calm   2.0 mph 54 % 0.00 in 882.00 W/m2
11:30 86.4 °F 66.7 °F 29.85 in Calm   4.0 mph 52 % 0.00 in 891.00 W/m2
11:35 86.6 °F 65.8 °F 29.85 in Calm   5.0 mph 50 % 0.00 in 895.00 W/m2
11:40 86.8 °F 66.5 °F 29.85 in Calm   4.0 mph 51 % 0.00 in 902.00 W/m2
11:45 86.9 °F 66.6 °F 29.85 in Calm   4.0 mph 51 % 0.00 in 909.00 W/m2
11:50 87.1 °F 66.8 °F 29.85 in Calm   7.0 mph 51 % 0.00 in 912.00 W/m2
11:55 87.4 °F 66.5 °F 29.85 in Calm   1.0 mph 50 % 0.00 in 916.00 W/m2
12:00 87.6 °F 67.8 °F 29.85 in Calm   1.0 mph 52 % 0.00 in 923.00 W/m2
12:05 87.7 °F 67.3 °F 29.85 in Calm   7.0 mph 51 % 0.00 in 926.00 W/m2
12:10 87.9 °F 67.5 °F 29.85 in Calm   5.0 mph 51 % 0.00 in 933.00 W/m2
12:15 88.2 °F 66.1 °F 29.85 in SSE 1.0 mph 2.0 mph 48 % 0.00 in 935.00 W/m2
12:20 88.6 °F 67.0 °F 29.85 in Calm   4.0 mph 49 % 0.00 in 940.00 W/m2
12:25 88.9 °F 66.7 °F 29.85 in Calm   6.0 mph 48 % 0.00 in 942.00 W/m2
12:30 89.2 °F 67.6 °F 29.84 in Calm   5.0 mph 49 % 0.00 in 944.00 W/m2
12:35 89.5 °F 67.2 °F 29.84 in SW 3.0 mph 6.0 mph 48 % 0.00 in 949.00 W/m2
12:40 89.7 °F 67.4 °F 29.85 in Calm   5.0 mph 48 % 0.00 in 947.00 W/m2
12:45 90.0 °F 65.8 °F 29.84 in West 4.0 mph 7.0 mph 45 % 0.00 in 947.00 W/m2
12:50 90.3 °F 66.7 °F 29.85 in WSW 4.0 mph 6.0 mph 46 % 0.00 in 947.00 W/m2
12:55 90.3 °F 66.1 °F 29.85 in West 1.0 mph 6.0 mph 45 % 0.00 in 949.00 W/m2
13:00 90.3 °F 66.1 °F 29.85 in Calm   4.0 mph 45 % 0.00 in 949.00 W/m2
13:05 90.2 °F 67.3 °F 29.84 in Calm   4.0 mph 47 % 0.00 in 951.00 W/m2
13:10 90.1 °F 66.6 °F 29.84 in Calm   5.0 mph 46 % 0.00 in 951.00 W/m2
13:15 90.2 °F 67.3 °F 29.84 in Calm   3.0 mph 47 % 0.00 in 953.00 W/m2
13:20 90.2 °F 66.6 °F 29.84 in Calm   4.0 mph 46 % 0.00 in 949.00 W/m2
13:25 90.2 °F 65.4 °F 29.84 in WSW 4.0 mph 9.0 mph 44 % 0.00 in 947.00 W/m2
13:30 90.1 °F 65.9 °F 29.84 in Calm   7.0 mph 45 % 0.00 in 949.00 W/m2
13:35 90.0 °F 66.5 °F 29.84 in West 1.0 mph 7.0 mph 46 % 0.00 in 942.00 W/m2
13:40 90.0 °F 66.5 °F 29.84 in Calm   8.0 mph 46 % 0.00 in 939.00 W/m2
13:45 90.2 °F 66.0 °F 29.84 in West 2.0 mph 8.0 mph 45 % 0.00 in 939.00 W/m2
13:50 90.4 °F 66.8 °F 29.84 in West 4.0 mph 4.0 mph 46 % 0.00 in 932.00 W/m2
13:55 90.3 °F 67.3 °F 29.84 in Calm   6.0 mph 47 % 0.00 in 930.00 W/m2
14:00 90.4 °F 66.2 °F 29.84 in Calm   6.0 mph 45 % 0.00 in 928.00 W/m2
14:05 90.3 °F 66.1 °F 29.84 in Calm   6.0 mph 45 % 0.00 in 925.00 W/m2
14:10 90.2 °F 66.0 °F 29.84 in West 8.0 mph 8.0 mph 45 % 0.00 in 919.00 W/m2
14:15 90.2 °F 65.4 °F 29.84 in Calm   7.0 mph 44 % 0.00 in 911.00 W/m2
14:20 90.2 °F 66.0 °F 29.84 in West 1.0 mph 8.0 mph 45 % 0.00 in 909.00 W/m2
14:25 90.3 °F 63.4 °F 29.84 in Calm   7.0 mph 41 % 0.00 in 902.00 W/m2
14:30 90.4 °F 65.5 °F 29.84 in Calm   1.0 mph 44 % 0.00 in 895.00 W/m2
14:35 90.3 °F 66.1 °F 29.84 in Calm   6.0 mph 45 % 0.00 in 888.00 W/m2
14:41 90.2 °F 65.4 °F 29.84 in West 2.0 mph 5.0 mph 44 % 0.00 in 882.00 W/m2
14:45 90.2 °F 65.4 °F 29.84 in Calm   8.0 mph 44 % 0.00 in 874.00 W/m2
14:50 90.4 °F 63.5 °F 29.84 in Calm   3.0 mph 41 % 0.00 in 867.00 W/m2
14:55 90.4 °F 65.5 °F 29.84 in Calm   1.0 mph 44 % 0.00 in 860.00 W/m2
15:01 90.3 °F 64.8 °F 29.84 in West 3.0 mph 7.0 mph 43 % 0.00 in 851.00 W/m2
15:06 90.2 °F 64.7 °F 29.84 in Calm   6.0 mph 43 % 0.00 in 846.00 W/m2
15:11 90.2 °F 64.0 °F 29.84 in West 5.0 mph 5.0 mph 42 % 0.00 in 838.00 W/m2
15:16 90.2 °F 64.7 °F 29.84 in Calm   2.0 mph 43 % 0.00 in 830.00 W/m2
15:21 90.1 °F 64.6 °F 29.84 in WNW 7.0 mph 7.0 mph 43 % 0.00 in 819.00 W/m2
15:26 90.1 °F 63.9 °F 29.84 in Calm   1.0 mph 42 % 0.00 in 807.00 W/m2
15:31 90.0 °F 64.5 °F 29.84 in Calm     43 % 0.00 in 796.00 W/m2
15:36 89.8 °F 65.0 °F 29.83 in Calm     44 % 0.00 in 784.00 W/m2
15:41 89.8 °F 63.7 °F 29.83 in Calm   3.0 mph 42 % 0.00 in 770.00 W/m2
15:46 89.8 °F 64.3 °F 29.83 in Calm     43 % 0.00 in 758.00 W/m2
15:51 89.7 °F 64.2 °F 29.84 in Calm   1.0 mph 43 % 0.00 in 751.00 W/m2
15:56 89.8 °F 65.0 °F 29.83 in WSW 3.0 mph 3.0 mph 44 % 0.00 in 735.00 W/m2
16:01 89.8 °F 64.3 °F 29.83 in Calm     43 % 0.00 in 726.00 W/m2
16:06 89.8 °F 64.3 °F 29.83 in Calm     43 % 0.00 in 714.00 W/m2
16:11 89.7 °F 63.6 °F 29.83 in Calm     42 % 0.00 in 705.00 W/m2
16:16 89.7 °F 64.9 °F 29.84 in West 1.0 mph 1.0 mph 44 % 0.00 in 689.00 W/m2
16:21 89.7 °F 64.2 °F 29.83 in Calm     43 % 0.00 in 677.00 W/m2
16:26 89.5 °F 64.7 °F 29.83 in West 3.0 mph 3.0 mph 44 % 0.00 in 664.00 W/m2
16:31 89.4 °F 64.0 °F 29.83 in West 3.0 mph 3.0 mph 43 % 0.00 in 650.00 W/m2
16:36 89.3 °F 63.9 °F 29.83 in Calm     43 % 0.00 in 638.00 W/m2
16:41 89.1 °F 65.0 °F 29.83 in Calm     45 % 0.00 in 624.00 W/m2
16:46 89.0 °F 64.9 °F 29.83 in Calm     45 % 0.00 in 606.00 W/m2
16:51 88.8 °F 64.7 °F 29.83 in Calm   1.0 mph 45 % 0.00 in 596.00 W/m2
16:56 88.8 °F 64.7 °F 29.83 in Calm     45 % 0.00 in 575.00 W/m2
17:01 88.7 °F 65.3 °F 29.83 in WSW 4.0 mph 7.0 mph 46 % 0.00 in 566.00 W/m2
17:06 88.7 °F 64.0 °F 29.83 in SW 2.0 mph 5.0 mph 44 % 0.00 in 548.00 W/m2
17:11 88.7 °F 64.7 °F 29.83 in Calm   3.0 mph 45 % 0.00 in 533.00 W/m2
17:16 88.7 °F 64.7 °F 29.83 in Calm     45 % 0.00 in 520.00 W/m2
17:21 88.8 °F 64.1 °F 29.83 in Calm     44 % 0.00 in 504.00 W/m2
17:26 88.8 °F 62.8 °F 29.83 in Calm   6.0 mph 42 % 0.00 in 490.00 W/m2
17:31 88.8 °F 63.4 °F 29.83 in Calm     43 % 0.00 in 476.00 W/m2
17:36 88.7 °F 64.0 °F 29.83 in SW 1.0 mph 4.0 mph 44 % 0.00 in 459.00 W/m2
17:41 88.7 °F 63.3 °F 29.83 in Calm     43 % 0.00 in 446.00 W/m2
17:46 88.7 °F 64.7 °F 29.83 in Calm     45 % 0.00 in 431.00 W/m2
17:51 88.6 °F 63.3 °F 29.83 in Calm     43 % 0.00 in 417.00 W/m2
17:56 88.5 °F 63.2 °F 29.83 in Calm   3.0 mph 43 % 0.00 in 408.00 W/m2
18:01 88.4 °F 63.1 °F 29.83 in Calm     43 % 0.00 in 394.00 W/m2
18:06 88.3 °F 63.0 °F 29.83 in Calm     43 % 0.00 in 380.00 W/m2
18:11 88.2 °F 63.6 °F 29.83 in Calm     44 % 0.00 in 366.00 W/m2
18:16 88.0 °F 64.0 °F 29.83 in Calm   5.0 mph 45 % 0.00 in 353.00 W/m2
18:22 87.8 °F 63.8 °F 29.83 in SSW 2.0 mph 9.0 mph 45 % 0.00 in 341.00 W/m2
18:27 87.6 °F 63.7 °F 29.83 in Calm   6.0 mph 45 % 0.00 in 323.00 W/m2
18:32 87.5 °F 64.2 °F 29.83 in SSW 7.0 mph 7.0 mph 46 % 0.00 in 264.00 W/m2
18:37 87.3 °F 64.0 °F 29.84 in Calm     46 % 0.00 in 241.00 W/m2
18:42 87.1 °F 63.8 °F 29.84 in Calm     46 % 0.00 in 285.00 W/m2
18:47 86.9 °F 63.7 °F 29.84 in SSW 5.0 mph 5.0 mph 46 % 0.00 in 281.00 W/m2
18:52 86.6 °F 63.4 °F 29.84 in Calm     46 % 0.00 in 274.00 W/m2
18:57 86.3 °F 62.5 °F 29.84 in Calm   1.0 mph 45 % 0.00 in 253.00 W/m2
19:02 86.0 °F 63.4 °F 29.85 in Calm     47 % 0.00 in 162.00 W/m2
19:07 85.7 °F 63.2 °F 29.85 in Calm     47 % 0.00 in 165.00 W/m2
19:12 85.5 °F 63.6 °F 29.85 in Calm     48 % 0.00 in 162.00 W/m2
19:17 85.3 °F 64.0 °F 29.85 in Calm     49 % 0.00 in 148.00 W/m2
19:22 85.1 °F 64.4 °F 29.85 in Calm     50 % 0.00 in 139.00 W/m2
19:27 84.9 °F 64.8 °F 29.85 in Calm     51 % 0.00 in 111.00 W/m2
19:32 84.7 °F 64.0 °F 29.86 in Calm   3.0 mph 50 % 0.00 in 100.00 W/m2
19:37 84.5 °F 64.4 °F 29.86 in Calm   1.0 mph 51 % 0.00 in 97.00 W/m2
19:42 84.3 °F 64.2 °F 29.86 in South 8.0 mph 8.0 mph 51 % 0.00 in 95.00 W/m2
19:47 84.1 °F 64.0 °F 29.86 in Calm   4.0 mph 51 % 0.00 in 83.00 W/m2
19:52 83.9 °F 63.8 °F 29.86 in Calm     51 % 0.00 in 67.00 W/m2
19:57 83.6 °F 63.6 °F 29.86 in Calm   1.0 mph 51 % 0.00 in 54.00 W/m2
20:02 83.5 °F 64.0 °F 29.86 in Calm   4.0 mph 52 % 0.00 in 44.00 W/m2
20:07 83.3 °F 63.9 °F 29.86 in Calm   5.0 mph 52 % 0.00 in 33.00 W/m2
20:12 83.1 °F 64.2 °F 29.86 in Calm   1.0 mph 53 % 0.00 in 26.00 W/m2
20:17 82.9 °F 64.0 °F 29.86 in SSE 6.0 mph 7.0 mph 53 % 0.00 in 21.00 W/m2
20:22 82.8 °F 63.9 °F 29.86 in SSE 8.0 mph 8.0 mph 53 % 0.00 in 16.00 W/m2
20:27 82.5 °F 63.7 °F 29.86 in SSE 2.0 mph 5.0 mph 53 % 0.00 in 11.00 W/m2
20:32 82.1 °F 64.3 °F 29.86 in Calm   1.0 mph 55 % 0.00 in 11.00 W/m2
20:37 81.7 °F 64.0 °F 29.86 in Calm     55 % 0.00 in 9.00 W/m2
20:42 81.2 °F 63.5 °F 29.86 in Calm     55 % 0.00 in 5.00 W/m2
20:47 80.7 °F 63.6 °F 29.85 in Calm     56 % 0.00 in 0.00 W/m2
20:52 80.2 °F 63.6 °F 29.85 in Calm     57 % 0.00 in 0.00 W/m2
20:57 79.9 °F 62.8 °F 29.85 in Calm     56 % 0.00 in 0.00 W/m2
21:02 79.8 °F 62.7 °F 29.85 in Calm     56 % 0.00 in 0.00 W/m2
21:07 79.6 °F 63.0 °F 29.85 in Calm     57 % 0.00 in 0.00 W/m2
21:12 79.5 °F 63.0 °F 29.85 in SE 1.0 mph 1.0 mph 57 % 0.00 in 0.00 W/m2
21:17 79.4 °F 62.9 °F 29.85 in Calm     57 % 0.00 in 0.00 W/m2
21:22 79.4 °F 62.9 °F 29.85 in Calm   1.0 mph 57 % 0.00 in 0.00 W/m2
21:27 79.3 °F 62.8 °F 29.85 in Calm   2.0 mph 57 % 0.00 in 0.00 W/m2
21:32 79.2 °F 62.2 °F 29.85 in Calm     56 % 0.00 in 0.00 W/m2
21:37 79.2 °F 62.2 °F 29.85 in Calm   7.0 mph 56 % 0.00 in 0.00 W/m2
21:43 79.1 °F 62.1 °F 29.85 in SE 4.0 mph 7.0 mph 56 % 0.00 in 0.00 W/m2
21:48 79.1 °F 62.1 °F 29.85 in SE 2.0 mph 9.0 mph 56 % 0.00 in 0.00 W/m2
21:53 79.0 °F 62.0 °F 29.84 in Calm   7.0 mph 56 % 0.00 in 0.00 W/m2
21:58 78.9 °F 61.9 °F 29.84 in Calm   6.0 mph 56 % 0.00 in 0.00 W/m2
22:03 78.9 °F 61.4 °F 29.85 in Calm   2.0 mph 55 % 0.00 in 0.00 W/m2
22:08 78.9 °F 61.9 °F 29.85 in ESE 12.0 mph 13.0 mph 56 % 0.00 in 0.00 W/m2
22:13 78.9 °F 61.4 °F 29.85 in East 9.0 mph 9.0 mph 55 % 0.00 in 0.00 W/m2
22:18 78.9 °F 61.4 °F 29.85 in East 5.0 mph 9.0 mph 55 % 0.00 in 0.00 W/m2
22:23 79.0 °F 62.0 °F 29.84 in Calm   6.0 mph 56 % 0.00 in 0.00 W/m2
22:28 79.0 °F 62.0 °F 29.84 in Calm     56 % 0.00 in 0.00 W/m2
22:33 79.0 °F 62.0 °F 29.84 in Calm     56 % 0.00 in 0.00 W/m2
22:38 79.1 °F 62.1 °F 29.84 in Calm     56 % 0.00 in 0.00 W/m2
22:43 79.1 °F 62.1 °F 29.84 in Calm   1.0 mph 56 % 0.00 in 0.00 W/m2
22:48 79.0 °F 62.0 °F 29.84 in Calm     56 % 0.00 in 0.00 W/m2
22:53 79.0 °F 62.0 °F 29.83 in Calm     56 % 0.00 in 0.00 W/m2
22:58 79.0 °F 62.0 °F 29.84 in Calm     56 % 0.00 in 0.00 W/m2
23:03 79.0 °F 62.0 °F 29.84 in ESE 5.0 mph 14.0 mph 56 % 0.00 in 0.00 W/m2
23:08 79.0 °F 62.0 °F 29.84 in ESE 11.0 mph 14.0 mph 56 % 0.00 in 0.00 W/m2
23:13 79.0 °F 62.0 °F 29.84 in Calm   1.0 mph 56 % 0.00 in 0.00 W/m2
23:18 79.0 °F 62.0 °F 29.83 in East 6.0 mph 12.0 mph 56 % 0.00 in 0.00 W/m2
23:23 79.0 °F 62.0 °F 29.84 in Calm   9.0 mph 56 % 0.00 in 0.00 W/m2
23:28 79.0 °F 62.0 °F 29.84 in Calm   9.0 mph 56 % 0.00 in 0.00 W/m2
23:33 79.0 °F 61.5 °F 29.84 in ESE 6.0 mph 11.0 mph 55 % 0.00 in 0.00 W/m2
23:35 79.1 °F 61.6 °F 29.84 in Calm   11.0 mph 55 % 0.00 in 0.00 W/m2
23:40 79.1 °F 61.6 °F 29.83 in Calm   9.0 mph 55 % 0.00 in 0.00 W/m2
23:45 79.1 °F 61.6 °F 29.83 in East 5.0 mph 9.0 mph 55 % 0.00 in 0.00 W/m2
23:50 79.0 °F 61.5 °F 29.83 in East 7.0 mph 11.0 mph 55 % 0.00 in 0.00 W/m2
23:55 78.9 °F 61.4 °F 29.83 in Calm   9.0 mph 55 % 0.00 in 0.00 W/m2
Juneau County Weather
Compliments of Weather Underground - 4.75 mb
 WU-history PHP script courtesy of   Juneau County Weather.
powered by Cumulus v1.9.3 (1059)
Ambient Weather VWS v14.00
Top Contact Website Map Copyright © 2007 - 2018 Foresthillweather.com Never base important decisions on this or any weather information obtained from the Internet